Temperature
21 18 18 19 19 20 20 20 19 20 21 20 19 19 18 19 19 18 18 18 18 18 18 18 18 18 18 18 17 17 16 16 16 16 15 15 15 15 15 15 15 15 15 15
18 19 20 20 21 21 20 19 19 20 21 21 19 19 19 18 19 19 18 18 18 18 18 18 18 18 18 18 17 17 16 16 16 16 15 15 15 15 15 15 14 14 14 14
19 20 21 21 21 21 20 19 19 19 20 20 19 18 18 18 19 19 19 18 18 18 18 18 18 18 17 17 17 17 16 16 16 16 15 15 15 15 15 14 14 14 14 14
19 20 21 21 21 21 19 20 20 20 19 17 19 17 18 17 17 18 18 18 18 18 18 18 18 17 17 17 17 17 16 16 16 15 15 15 15 15 14 14 14 14 14 14
19 20 20 20 21 21 20 21 20 20 19 18 18 17 17 17 17 17 17 18 18 18 18 18 18 17 17 17 17 16 16 16 16 15 15 15 15 14 14 14 13 13 13 13
19 21 21 21 21 21 21 20 19 17 16 17 17 17 17 16 17 18 17 18 18 18 18 18 18 17 17 17 16 16 16 16 15 15 15 15 15 14 14 14 13 13 13 13
19 20 21 21 20 20 19 17 16 16 15 16 17 17 17 18 18 18 18 18 18 18 18 18 18 17 17 17 16 16 16 16 15 15 15 15 14 14 14 14 14 13 13 13
18 18 20 20 20 19 19 17 16 16 16 16 17 17 17 18 19 19 19 19 18 18 18 18 18 18 17 17 16 16 16 16 15 15 15 14 14 14 14 14 13 13 13 13
17 18 20 21 21 20 19 17 17 16 17 16 16 17 18 18 18 18 18 18 18 18 18 18 18 18 17 17 16 16 16 16 15 15 15 14 14 14 14 13 13 13 13 13
18 17 19 20 21 20 20 18 15 16 16 16 16 17 17 17 17 17 17 17 17 18 17 18 18 17 17 17 17 16 16 16 15 15 15 14 14 14 13 13 13 13 13 12
17 17 17 19 19 19 19 18 16 15 15 15 15 16 18 17 17 17 17 17 18 18 17 17 17 17 17 17 16 16 16 15 15 15 14 14 14 13 13 13 13 13 12 12
16 15 16 17 18 19 19 18 16 16 15 15 14 15 18 17 17 17 17 17 18 18 18 17 17 17 17 16 16 16 15 15 15 14 14 14 14 13 13 13 13 12 12 12
16 15 15 16 17 18 18 18 17 15 14 14 15 16 17 16 17 17 17 17 17 17 17 17 17 16 16 16 16 16 15 15 15 14 14 14 13 13 13 13 13 12 12 12
16 14 15 16 16 16 17 18 17 16 14 15 15 16 16 16 16 16 17 17 17 17 17 17 16 16 16 16 16 15 15 15 14 14 14 13 13 13 13 13 12 12 12 12
15 15 15 16 17 17 17 17 17 16 16 15 16 16 16 16 16 16 16 16 16 16 16 16 16 16 15 15 15 15 15 14 14 14 13 13 13 13 13 12 12 12 12 12
14 15 15 16 17 17 17 17 17 17 16 16 16 16 16 16 16 16 16 15 15 15 15 15 15 15 15 15 15 14 14 14 14 13 13 13 13 12 12 12 12 12 11 11
13 14 14 14 15 16 16 16 17 17 16 16 16 16 15 15 15 15 15 15 15 15 15 15 15 15 15 15 14 14 14 14 13 13 13 13 12 12 12 12 12 11 11 11
13 13 12 13 14 15 15 16 17 16 16 16 16 15 15 15 16 16 16 16 15 15 15 15 15 15 15 14 14 14 13 13 13 13 12 12 12 12 12 12 11 11 11 11
13 13 12 12 13 14 15 16 16 16 15 15 15 15 15 15 15 14 15 16 16 15 15 15 15 14 14 14 14 13 13 13 12 12 12 12 12 11 11 11 11 11 11 10
13 12 12 12 13 13 14 16 16 16 14 15 14 14 14 14 12 12 15 15 15 15 15 15 14 14 14 14 13 13 13 12 12 12 12 11 11 11 11 11 11 10 10 10
13 12 12 12 12 13 14 15 16 14 14 15 15 14 14 13 14 15 15 15 15 14 14 14 14 14 13 13 13 13 12 12 12 11 11 11 11 11 11 10 10 10 10 10
12 12 11 11 12 13 14 14 14 14 15 15 15 15 14 14 14 14 14 14 14 14 14 14 13 13 13 13 12 12 12 12 11 11 11 11 10 10 10 10 10 10 9 9
12 12 11 11 12 13 14 14 15 15 15 15 15 14 14 14 13 13 13 13 13 13 13 13 13 13 12 12 12 12 11 11 11 11 10 10 10 10 10 10 9 9 9 9
11 11 11 11 11 13 14 14 14 15 15 15 15 14 14 13 13 13 13 12 12 12 12 12 12 12 12 11 11 11 11 10 10 10 10 10 10 9 9 9 9 9 8 8
10 11 10 10 11 12 13 14 14 14 14 14 14 14 14 13 13 12 12 12 12 12 12 12 11 11 11 11 10 10 10 10 10 10 9 9 9 9 9 8 8 8 8 8
10 10 10 10 11 11 12 13 13 13 13 13 13 13 13 13 12 12 12 12 11 11 11 11 11 11 10 10 10 10 10 9 9 9 9 9 8 8 8 8 8 7 7 7
Wind_Speed
0 3 2 5 6 5 4 2 2 4 4 3 5 6 7 8 8 8 8 8 8 8 7 7 7 8 8 7 7 7 7 6 5 4 3 3 2 2 2 2 4 6 6 6
3 2 7 5 4 4 2 1 2 4 2 2 3 5 6 8 10 11 11 10 10 7 5 6 7 8 8 8 7 7 7 7 6 5 4 3 3 2 1 2 3 5 6 5
5 6 4 2 1 2 1 3 4 4 3 2 1 4 4 3 5 6 8 9 9 10 10 8 8 8 8 8 8 8 7 7 6 6 4 4 3 3 2 2 1 2 4 4
3 4 2 2 2 3 3 4 3 2 1 3 1 3 6 4 3 5 7 8 8 8 8 8 8 8 9 9 8 8 8 7 6 7 6 6 4 3 2 2 1 1 2 3
3 2 2 3 4 3 5 3 2 2 2 2 1 2 6 2 4 7 8 8 8 9 10 9 9 9 9 8 8 8 7 7 6 7 7 7 5 3 2 2 2 1 1 2
4 2 3 4 3 2 2 3 5 5 3 2 5 5 5 5 8 6 7 8 8 9 9 9 9 7 7 7 7 7 8 7 7 7 7 7 7 5 5 3 3 2 1 0
3 4 3 2 1 1 4 5 3 4 3 5 4 3 6 7 7 8 9 9 9 9 9 9 8 8 8 8 8 8 8 7 7 7 7 6 7 7 7 5 5 3 2 1
2 5 4 3 5 4 3 7 6 4 4 5 3 3 5 4 3 5 7 8 8 8 8 9 10 10 10 10 9 9 9 7 7 7 7 6 6 5 4 5 5 5 4 4
4 5 4 4 4 7 4 4 7 5 2 2 4 4 4 3 4 4 6 7 7 8 8 8 8 9 9 11 11 11 10 8 8 7 6 6 6 5 5 5 5 4 4 4
5 3 4 3 1 1 5 6 5 4 2 3 4 4 4 3 3 4 5 6 6 6 6 7 7 7 8 9 9 9 10 10 8 8 7 6 6 6 6 5 5 5 5 4
3 3 3 1 2 4 1 2 4 4 5 5 3 6 4 7 7 8 7 7 6 7 6 6 6 7 7 6 7 7 8 7 7 8 7 6 5 5 5 6 6 6 5 5
2 4 2 5 5 5 5 5 6 4 4 5 4 7 5 4 5 6 6 6 5 5 5 6 6 5 5 5 6 7 7 7 7 7 6 6 5 5 5 5 6 6 6 5
3 4 1 4 5 3 0 2 3 4 4 4 4 6 3 1 1 4 5 5 4 4 4 4 4 4 5 5 6 6 6 6 6 6 6 5 5 5 5 5 5 5 5 5
4 3 5 7 6 3 3 4 2 3 3 5 7 8 5 3 2 2 3 5 5 4 4 4 3 4 4 5 6 6 6 5 5 5 6 6 6 6 5 5 5 5 5 5
3 3 4 5 5 4 5 6 5 5 7 7 8 8 7 6 6 5 4 4 5 4 4 4 4 4 4 4 5 5 5 5 5 6 6 6 6 5 5 5 5 5 4 5
2 2 1 3 3 3 5 7 7 6 5 5 5 6 5 4 3 3 4 5 5 4 4 4 4 4 4 5 5 5 5 5 5 6 6 6 4 4 5 5 5 4 4 4
1 3 1 3 4 3 5 5 5 4 3 4 5 6 2 1 4 6 6 6 6 5 4 4 4 5 5 5 5 6 5 4 5 5 5 5 5 5 5 5 5 5 5 4
5 3 3 1 2 5 6 3 3 4 1 2 3 3 3 3 4 4 4 6 5 5 4 4 4 3 3 3 3 3 3 4 5 4 4 4 5 5 4 4 5 5 5 5
7 6 3 3 3 6 5 3 2 3 3 2 2 1 1 2 3 1 1 4 5 5 4 4 4 3 3 3 3 3 3 3 4 4 5 5 5 5 4 5 5 4 4 4
3 4 4 3 3 5 6 5 2 3 3 4 2 3 2 4 1 4 3 2 2 2 2 3 3 3 3 2 3 4 3 3 4 5 5 5 4 5 5 5 4 3 4 4
2 2 3 3 4 5 6 4 2 3 6 3 2 4 4 4 5 4 2 1 1 1 2 3 3 3 2 2 3 3 3 4 4 3 3 3 4 4 4 3 3 3 3 3
4 2 3 3 3 6 3 2 3 5 3 2 2 3 3 1 0 1 2 2 1 1 2 3 3 1 1 1 3 3 3 4 2 2 2 3 3 3 2 3 2 3 4 3
3 5 4 5 5 4 2 2 3 3 2 2 2 3 4 3 1 1 1 1 1 1 1 2 3 1 0 1 2 4 4 2 2 2 2 2 2 2 2 3 3 3 3 3
4 1 1 2 4 4 3 3 2 2 2 2 3 3 4 3 2 2 1 1 1 1 1 1 2 2 1 2 1 3 3 3 3 3 2 2 2 1 1 1 2 3 3 3
4 1 1 3 5 4 4 3 3 2 1 1 1 1 3 4 3 3 2 2 2 1 2 2 2 2 3 2 1 2 3 4 3 3 2 2 2 2 1 1 1 2 3 4
3 4 5 6 6 4 5 4 2 1 1 1 1 0 1 3 3 2 3 2 2 2 2 2 2 2 3 2 2 2 3 4 4 3 2 2 2 2 2 2 1 1 1 1
Wind_Direction
170 90 211 221 197 187 176 168 233 246 229 188 213 226 223 202 188 189 192 189 184 191 192 172 167 162 156 152 152 151 147 149 135 122 119 116 116 93 79 82 92 92 94 96
47 241 234 219 202 177 163 180 283 288 270 192 232 247 231 202 201 194 188 187 185 180 169 169 162 159 159 159 159 154 154 152 149 147 148 147 141 129 117 77 81 90 98 101
188 234 227 189 153 145 213 189 220 249 317 3 31 307 279 243 202 195 191 187 182 178 177 174 165 165 158 161 165 163 161 157 154 146 127 107 81 66 59 51 59 74 101 107
224 245 192 172 208 169 238 221 205 226 50 281 145 275 276 238 210 204 200 189 186 180 175 174 168 166 171 174 166 158 163 164 160 149 145 142 140 149 179 177 174 133 107 113
253 217 180 207 224 195 215 214 199 224 190 296 266 209 282 228 213 220 206 192 187 181 173 174 175 176 175 172 167 164 165 166 158 157 158 154 151 163 160 153 154 159 131 116
243 243 195 208 229 188 166 47 30 42 74 292 238 189 266 226 209 208 203 190 181 175 175 177 176 168 164 161 165 166 166 170 166 161 162 165 165 163 153 159 172 183 178 180
306 289 256 181 133 11 83 83 29 355 358 256 251 188 248 242 215 193 185 184 181 169 168 169 167 167 171 167 171 172 170 173 173 167 170 176 175 171 172 176 181 175 179 202
203 262 248 203 182 187 175 143 160 201 231 279 313 231 261 266 200 160 159 165 167 164 166 172 176 177 183 179 176 175 176 177 177 175 179 181 177 176 183 182 180 186 195 201
185 246 270 226 187 154 161 185 177 155 229 270 288 297 320 41 88 119 136 145 161 169 170 176 180 181 185 184 185 183 179 178 180 182 178 178 180 178 184 188 186 191 201 199
162 226 275 259 72 209 174 166 107 133 181 261 291 270 239 219 189 162 155 162 172 170 173 175 177 184 193 193 189 185 183 183 180 181 182 183 187 189 188 186 191 195 199 196
142 168 301 6 181 219 203 151 134 141 164 173 253 270 229 204 198 185 185 177 172 175 178 181 183 186 190 184 180 181 184 180 180 184 184 180 186 189 185 191 199 198 197 192
142 138 232 259 259 219 195 188 158 166 217 182 198 263 274 209 193 173 174 174 176 177 174 177 179 176 177 173 174 180 183 182 186 186 184 184 187 188 188 196 202 201 201 201
124 121 108 330 332 346 210 205 168 156 151 176 195 258 295 48 127 159 163 169 167 163 152 153 159 169 178 178 178 181 181 184 182 176 178 182 183 188 196 200 202 199 200 205
123 134 175 203 224 230 252 260 219 147 183 216 219 240 277 270 226 199 181 166 156 152 153 153 164 182 188 185 182 183 187 183 175 171 174 186 195 196 199 194 195 201 201 200
109 171 212 229 235 220 235 248 234 220 207 207 229 229 242 229 204 196 177 149 141 149 153 158 168 187 191 188 189 189 189 183 175 172 183 198 202 198 192 190 197 200 199 206
105 179 215 284 278 259 260 254 236 230 226 222 223 247 255 217 178 163 160 156 163 174 172 168 163 167 181 191 194 195 194 191 178 181 195 200 193 194 199 199 197 192 195 198
173 150 148 266 299 338 271 248 225 212 216 201 225 244 243 169 186 192 181 173 182 188 187 185 186 191 194 192 188 193 198 190 183 189 197 199 194 198 206 203 197 198 199 195
175 161 165 217 5 243 247 251 196 170 248 223 213 228 193 200 202 185 169 174 188 195 194 197 199 204 204 188 179 177 174 180 188 195 202 202 198 203 207 202 204 208 201 195
184 166 158 161 218 265 295 288 212 183 270 297 197 174 115 100 73 354 237 189 192 198 198 199 198 191 178 176 172 152 153 170 183 198 207 208 203 203 205 210 215 211 197 200
103 130 147 159 193 233 253 282 262 142 252 293 190 168 149 100 105 262 263 230 200 178 168 164 158 151 160 184 159 145 164 179 203 213 217 210 200 201 207 214 216 212 197 202
62 74 158 183 216 256 266 288 68 162 246 265 200 180 166 189 216 224 206 184 188 167 160 142 135 146 176 179 151 155 179 215 227 221 212 203 202 203 204 204 203 189 185 183
176 178 198 167 200 255 288 98 163 221 238 231 199 189 185 212 149 148 146 145 134 157 154 144 138 151 186 161 155 175 214 230 219 195 196 211 213 213 193 174 183 174 167 170
194 193 191 191 216 253 261 209 240 208 207 211 188 192 163 150 158 153 164 173 187 190 179 151 140 139 296 209 174 194 224 203 160 148 174 203 199 196 179 174 177 173 164 174
285 304 153 258 275 283 303 322 324 255 215 205 179 170 154 159 169 173 174 185 192 226 191 157 141 156 233 257 226 205 203 174 148 151 172 178 166 160 150 169 180 180 186 191
241 214 227 262 279 311 315 299 288 306 354 60 93 146 160 154 167 179 193 207 199 198 205 180 181 210 234 248 241 208 180 157 148 158 174 178 167 161 145 141 192 198 213 206
225 201 199 240 244 230 260 272 272 276 267 197 152 151 184 174 177 175 186 198 193 203 219 209 210 226 248 245 233 219 189 169 165 174 185 183 172 168 163 150 54 353 254 232
Height
1495 1500 1505 1502 1500 1501 1503 1507 1510 1506 1499 1502 1504 1504 1502 1501 1502 1503 1504 1506 1507 1509 1510 1512 1514 1515 1517 1519 1520 1521 1523 1524 1526 1527 1528 1528 1529 1530 1530 1531 1531 1531 1531 1530
1500 1502 1496 1494 1495 1498 1502 1507 1509 1504 1498 1500 1503 1503 1499 1498 1498 1499 1501 1503 1504 1507 1508 1510 1511 1513 1515 1517 1518 1520 1522 1523 1524 1526 1527 1528 1529 1529 1530 1530 1530 1530 1530 1530
1501 1497 1492 1494 1497 1500 1502 1506 1507 1507 1501 1500 1504 1507 1502 1498 1497 1498 1499 1500 1501 1503 1505 1507 1509 1510 1512 1514 1516 1518 1520 1522 1523 1525 1526 1527 1528 1528 1529 1529 1529 1529 1529 1529
1496 1492 1492 1495 1497 1498 1506 1498 1500 1502 1509 1514 1509 1522 1506 1499 1497 1496 1497 1498 1499 1501 1503 1505 1506 1508 1510 1512 1514 1516 1519 1520 1522 1523 1524 1525 1526 1526 1527 1527 1528 1528 1529 1529
1496 1492 1493 1496 1495 1494 1498 1494 1497 1500 1507 1513 1511 1518 1511 1500 1500 1496 1494 1495 1496 1498 1500 1502 1504 1506 1508 1510 1513 1515 1517 1519 1520 1522 1523 1523 1524 1525 1526 1526 1527 1527 1528 1528
1492 1489 1490 1491 1490 1491 1492 1497 1501 1507 1513 1523 1512 1516 1513 1502 1494 1491 1490 1492 1493 1496 1498 1500 1503 1505 1507 1509 1512 1513 1515 1517 1518 1520 1521 1522 1523 1523 1524 1525 1525 1526 1526 1526
1496 1491 1488 1488 1492 1492 1496 1511 1526 1527 1531 1526 1508 1511 1507 1490 1486 1485 1487 1489 1491 1494 1496 1498 1500 1502 1505 1507 1509 1511 1513 1515 1516 1518 1519 1520 1521 1522 1522 1523 1523 1524 1524 1524
1505 1504 1490 1487 1490 1496 1498 1508 1527 1534 1533 1524 1509 1510 1499 1485 1483 1483 1485 1487 1490 1492 1494 1496 1497 1500 1502 1504 1506 1508 1510 1512 1514 1515 1517 1518 1519 1520 1520 1521 1522 1522 1522 1523
1503 1502 1487 1484 1484 1489 1498 1504 1505 1518 1519 1523 1516 1505 1493 1486 1486 1485 1486 1488 1489 1490 1492 1494 1495 1497 1499 1501 1503 1506 1507 1509 1511 1513 1515 1516 1517 1517 1518 1519 1520 1520 1521 1521
1493 1500 1490 1485 1485 1486 1490 1496 1509 1516 1525 1530 1520 1511 1504 1493 1490 1488 1487 1487 1488 1490 1491 1492 1494 1495 1497 1499 1501 1503 1505 1507 1509 1511 1512 1513 1514 1515 1516 1517 1517 1518 1518 1519
1489 1499 1496 1490 1491 1493 1493 1496 1503 1513 1517 1526 1528 1515 1489 1488 1486 1486 1486 1486 1487 1489 1490 1491 1492 1494 1495 1497 1499 1500 1502 1504 1506 1508 1509 1510 1511 1512 1513 1514 1514 1515 1516 1516
1490 1498 1503 1495 1487 1484 1488 1492 1500 1513 1515 1516 1521 1512 1483 1483 1482 1483 1485 1486 1487 1488 1489 1490 1491 1492 1493 1495 1496 1498 1500 1501 1503 1505 1506 1507 1509 1510 1510 1511 1512 1512 1513 1513
1489 1499 1508 1505 1499 1490 1489 1489 1492 1500 1508 1515 1518 1508 1483 1482 1483 1483 1484 1485 1486 1487 1488 1489 1490 1490 1491 1493 1494 1496 1497 1499 1500 1502 1503 1504 1505 1506 1507 1508 1509 1509 1510 1510
1485 1496 1502 1506 1501 1494 1493 1490 1490 1498 1508 1509 1505 1498 1487 1484 1484 1483 1483 1484 1485 1486 1487 1487 1488 1489 1490 1491 1492 1493 1495 1496 1498 1499 1500 1501 1501 1502 1503 1504 1505 1506 1506 1507
1486 1495 1493 1491 1488 1488 1488 1488 1488 1491 1494 1499 1495 1491 1486 1483 1482 1482 1482 1483 1484 1485 1485 1486 1486 1487 1488 1489 1490 1491 1492 1493 1495 1495 1496 1497 1498 1499 1500 1501 1501 1502 1503 1503
1487 1492 1491 1491 1486 1485 1486 1484 1483 1484 1485 1487 1486 1486 1480 1479 1479 1480 1481 1482 1483 1484 1484 1484 1485 1486 1486 1487 1487 1489 1489 1490 1491 1492 1493 1494 1495 1495 1496 1497 1498 1498 1499 1499
1489 1492 1495 1497 1491 1488 1491 1482 1481 1481 1482 1482 1486 1483 1479 1479 1479 1478 1479 1480 1481 1481 1482 1482 1483 1484 1484 1485 1485 1486 1487 1488 1488 1489 1489 1490 1491 1492 1492 1493 1494 1494 1495 1495
1487 1491 1496 1498 1496 1500 1486 1475 1475 1477 1478 1478 1477 1477 1476 1476 1476 1477 1477 1478 1479 1480 1480 1481 1481 1482 1482 1483 1483 1484 1485 1485 1485 1486 1486 1487 1487 1488 1489 1490 1490 1490 1491 1491
1479 1486 1495 1499 1499 1493 1482 1475 1475 1477 1479 1476 1475 1475 1475 1475 1475 1477 1477 1477 1477 1478 1478 1479 1479 1480 1481 1481 1481 1482 1482 1482 1482 1482 1483 1483 1484 1484 1485 1485 1486 1486 1487 1487
1477 1481 1491 1496 1497 1496 1484 1473 1470 1475 1481 1475 1474 1474 1474 1474 1480 1477 1475 1475 1475 1476 1476 1477 1477 1478 1478 1479 1479 1479 1479 1479 1479 1479 1479 1480 1480 1481 1481 1482 1482 1482 1483 1483
1484 1487 1492 1494 1495 1488 1476 1471 1471 1484 1482 1473 1472 1472 1472 1473 1474 1473 1473 1473 1473 1474 1474 1475 1475 1476 1476 1476 1476 1476 1476 1476 1476 1476 1476 1477 1477 1477 1477 1478 1478 1479 1479 1480
1485 1489 1491 1493 1494 1489 1472 1471 1475 1475 1470 1470 1470 1470 1470 1470 1471 1471 1471 1471 1472 1472 1473 1473 1473 1473 1474 1474 1474 1473 1473 1473 1473 1473 1473 1473 1473 1473 1474 1474 1475 1475 1476 1476
1481 1481 1482 1484 1483 1474 1471 1470 1470 1469 1469 1468 1468 1468 1468 1468 1469 1469 1470 1470 1471 1471 1471 1471 1471 1471 1471 1471 1471 1470 1470 1470 1470 1470 1470 1470 1470 1470 1470 1471 1471 1471 1472 1472
1478 1475 1478 1479 1474 1471 1470 1469 1468 1467 1466 1466 1466 1466 1466 1466 1467 1467 1468 1468 1469 1469 1469 1469 1469 1468 1468 1468 1468 1467 1467 1467 1467 1466 1466 1466 1467 1467 1467 1467 1468 1468 1468 1468
1476 1475 1477 1476 1473 1470 1468 1468 1467 1466 1465 1464 1464 1465 1464 1465 1465 1466 1466 1466 1467 1467 1467 1467 1467 1466 1466 1465 1465 1464 1464 1464 1464 1463 1463 1463 1463 1463 1464 1464 1465 1465 1465 1465
1472 1473 1475 1474 1470 1470 1468 1467 1466 1465 1463 1463 1463 1463 1463 1463 1463 1463 1464 1464 1465 1465 1465 1465 1464 1464 1463 1462 1461 1461 1461 1461 1461 1460 1460 1460 1460 1460 1461 1461 1462 1462 1463 1463